Regional Weather Roundup
Issued by NWS

Home | Current Version | Previous Version | Text Only | Print | Product List | Glossary Off
Versions: 1 2 3 4 5 6 7 8 9 10 11 12 13 14 15 16 17 18 19 20 21 22 23 24 25 26 27 28 29 30 31 32 33 34 35 36 37 38 39 40 41 42 43 44 45 46 47 48 49 50

000
ASUS43 KIND 192359
RWRIN

WEATHER ROUNDUP FOR INDIANA
NATIONAL WEATHER SERVICE INDIANAPOLIS IN
800 PM EDT TUE AUG 19 2014

NOTE: "FAIR" INDICATES FEW OR NO CLOUDS BELOW 12,000 FEET WITH NO
SIGNIFICANT WEATHER AND/OR OBSTRUCTIONS TO VISIBILITY.

* - STATION DOES NOT REPORT WEATHER SUCH AS PRECIPITATION OR FOG.

+ - STATION NOT QUALITY CONTROLLED BY THE NATIONAL WEATHER SERVICE.
    USE DATA WITH CAUTION...ESPECIALLY DEWPOINT AND RELATIVE
    HUMIDITY OBSERVATIONS.

INZ001>003-010>013-019-020-200100-
NORTHWEST INDIANA

CITY           SKY/WX    TMP DP  RH WIND       PRES   REMARKS
GARY /AIRPORT/ PTCLDY    81  66  61 S10       29.74S
KNOX *+        PTCLDY    77  67  71 SW3       29.75S
MONTICELLO +   PTCLDY    75  69  80 CALM      29.75F
VALPARAISO     PTCLDY    78  67  68 SW7       29.76S
6HR MIN TEMP:  74; 6HR MAX TEMP:  82; 6HR PCP: TRACE;


$$

LMZ046-743>745-200100-
SOUTHERN LAKE MICHIGAN

STATION/POSITION TIME  TEMP WIND        PRES
                       AIR  DIR/SP/G
                 (UTC) (F)  (DEG/KT/KT) (MB)
BURNS HARBOR     2300   78  220/ 14/ 19   N/A
MICHIGAN CITY    2300   78  190/ 14/ 18   N/A

$$

INZ004-005-014>016-021>024-200100-
NORTH CENTRAL INDIANA

CITY           SKY/WX    TMP DP  RH WIND       PRES   REMARKS
ELKHART        CLOUDY    75  63  64 S6        29.76F
GOSHEN         CLOUDY    76  68  76 S6        29.76F
6HR MIN TEMP:  70; 6HR MAX TEMP:  87; 6HR PCP:  0.21;

PERU/GRISSOM   MOCLDY    75  75 100 VRB2      29.78F THUNDER
SOUTH BEND     PTCLDY    77  63  61 SW7       29.76S
6HR MIN TEMP:  73; 6HR MAX TEMP:  87; 6HR PCP:  0.31;

WARSAW +       PTCLDY    72  70  94 CALM      29.77F

$$

INZ006>009-017-018-025>027-200100-
NORTHEAST INDIANA

CITY           SKY/WX    TMP DP  RH WIND       PRES   REMARKS
ANGOLA *+      CLEAR     72  64  78 CALM      29.78F
FORT WAYNE     CLOUDY    71  67  87 E5        29.80R
6HR MIN TEMP:  71; 6HR MAX TEMP:  85; 6HR PCP:  0.12;


$$

INZ028-029-035-036-043>045-051>053-200100-
WEST CENTRAL INDIANA

CITY           SKY/WX    TMP DP  RH WIND       PRES   REMARKS
GREENCASTLE +  PTCLDY    75  70  83 CALM      29.80F HAZE
LAFAYETTE      LGT RAIN  75  71  87 SE3       29.76R
6HR MIN TEMP:  70; 6HR MAX TEMP:  82; 6HR PCP:  0.30;

TERRE HAUTE    PTCLDY    83  73  72 SW7       29.78F
6HR MIN TEMP:  83; 6HR MAX TEMP:  87;


$$

INZ030>032-037>040-046>048-054>057-064-065-200100-
CENTRAL INDIANA

CITY           SKY/WX    TMP DP  RH WIND       PRES   REMARKS
INDIANAPOLIS   MOCLDY    80  70  71 S8        29.80F THUNDER
6HR MIN TEMP:  80; 6HR MAX TEMP:  86; 6HR PCP: TRACE;

-EAGLE CREEK   MOCLDY    80  68  66 CALM      29.79F
6HR MIN TEMP:  80; 6HR MAX TEMP:  85;

KOKOMO *+      PTCLDY    75  70  83 S12       29.80R
MT COMFORT *+  CLOUDY    79  66  65 SW3       29.82S
SHELBYVILLE    CLOUDY    80  69  69 SW6       29.81F
6HR MIN TEMP:  80; 6HR MAX TEMP:  87;

ZIONSVILLE +   CLOUDY    71  64  78 S5        29.81F
6HR MIN TEMP:  71; 6HR MAX TEMP:  85; 6HR PCP:  0.07;


$$

INZ033-034-041-042-049-050-058-059-200100-
EAST CENTRAL INDIANA

CITY           SKY/WX    TMP DP  RH WIND       PRES   REMARKS
MUNCIE         LGT RAIN  74  64  71 SW5       29.80F
6HR MIN TEMP:  74; 6HR MAX TEMP:  86; 6HR PCP:  0.09;


$$

INZ060-061-067>069-081>083-085>088-200100-
SOUTHWEST INDIANA

CITY           SKY/WX    TMP DP  RH WIND       PRES   REMARKS
EVANSVILLE     CLOUDY    84  74  71 W6        29.81R
6HR MIN TEMP:  84; 6HR MAX TEMP:  88;


$$

INZ062-063-066-070>080-084-089>092-200100-
SOUTH CENTRAL AND SOUTHEAST INDIANA

CITY           SKY/WX    TMP DP  RH WIND       PRES   REMARKS
BLOOMINGTON    MOCLDY    82  73  74 S6        29.81F
6HR MIN TEMP:  81; 6HR MAX TEMP:  85;

SEYMOUR +      CLOUDY    75  63  64 CALM      29.82

$$



USA.gov is the U.S. government's official web portal to all federal, state and local government web resources and services.